Regional Weather Roundup
Issued by NWS

Home | Current Version | Previous Version | Text Only | Print | Product List | Glossary Off
Versions: 1 2 3 4 5 6 7 8 9 10 11 12 13 14 15 16 17 18 19 20 21 22 23 24 25 26 27 28 29 30 31 32 33 34 35 36 37 38 39 40 41 42 43 44 45 46 47 48 49 50

000
ASUS43 KLSX 230157
RWRMO

WEATHER SUMMARY FOR MISSOURI
NATIONAL WEATHER SERVICE SPRINGFIELD MO
900 PM CDT TUE AUG 22 2017

NOTE: "FAIR" INDICATES FEW OR NO CLOUDS BELOW 12,000 FEET WITH NO
       SIGNIFICANT WEATHER AND/OR OBSTRUCTIONS TO VISIBILITY.
       CURRENT SKY AND/OR WEATHER CONDITIONS ARE NOT AVAILABLE FOR
       CHILLICOTHE AND FARMINGTON.

MOZ001>031-035>038-043-044-053-054-230300-
...NORTHERN AND WESTERN MISSOURI...

CITY           SKY/WX    TMP DP  RH WIND       PRES   REMARKS
KANSAS CTY INT CLEAR     64  54  69 N9        30.12R
LEE`S SUMMIT   CLEAR     67  58  72 MISG      30.12R
ST JOSEPH      CLEAR     61  57  87 N5        30.12R
CHILLICOTHE      N/A     63  58  83 CALM      30.11R

$$
MOZ066>068-077>081-088>096-101>105-230300-
...SOUTHWEST MISSOURI...

CITY           SKY/WX    TMP DP  RH WIND       PRES   REMARKS
SPRINGFIELD    CLOUDY    76  72  87 N7        30.07R
JOPLIN         PTCLDY    75  74  96 NE3       30.07R
BRANSON        CLOUDY    75  72  88 CALM      30.07R

$$
MOZ032>034-039>042-045>050-055>058-069>072-230300-
...CENTRAL MISSOURI...

CITY           SKY/WX    TMP DP  RH WIND       PRES   REMARKS
COLUMBIA       NOT AVBL
JEFFERSON CITY CLEAR     71  66  84 NW3       30.05R
ROLLA          MOCLDY    70  65  84 N3        30.08R
SEDALIA        CLEAR     68  65  90 NW3       30.10R

$$
MOZ051-052-059>065-230300-
...EAST CENTRAL MISSOURI...

CITY           SKY/WX    TMP DP  RH WIND       PRES   REMARKS
ST LOUIS INTL  PTCLDY    72  62  71 N6        30.03R

$$
MOZ072>076-082>087-097>100-106>115-230300-
...SOUTH CENTRAL AND SOUTHEAST MISSOURI...

CITY           SKY/WX    TMP DP  RH WIND       PRES   REMARKS
CAPE GIRARDEAU CLEAR     71  66  84 CALM      30.00R
POPLAR BLUFF   CLEAR     74  71  91 N3        30.00R
WEST PLAINS    CLEAR     73  68  84 N3        30.07R

$$


USA.gov is the U.S. government's official web portal to all federal, state and local government web resources and services.